"2009-01-25 00:00:00",570596,4.458,73.4,5.727,0.987,1.538,98.76669,-3.842,-2.696,75.44,0,109.5,13.55,-3.10,35.4
"2009-01-25 00:00:30",570597,4.389,69.81,5.103,1.08,1.178,98.76949,-3.835,-2.666,75.54,0,109.5,13.55,-3.10,31.8
"2009-01-25 00:01:00",570598,4.379,64.46,6.095,1.102,0.684,98.77003,-3.834,-2.679,75.47,0,109.5,13.56,-3.10,26.5
"2009-01-25 00:01:30",570599,4.073,67.9,6.587,1.097,-0.096,98.77227,-3.828,-2.783,75.3,0,109.5,13.56,-3.09,29.9
"2009-01-25 00:02:00",570600,3.101,66.97,4.853,1.07,-1.272,98.77703,-3.816,-2.807,75.25,0,109.5,13.56,-3.08,29.0
"2009-01-25 00:02:30",570601,3.244,66.98,7.038,1.14,-1.036,98.77843,-3.812,-2.803,75.17,0,109.5,13.56,-3.07,29.0
"2009-01-25 00:03:00",570602,4.062,72.2,5.499,1.032,0.929,98.77759,-3.814,-2.64,75.22,0,109.5,13.56,-3.08,34.2
"2009-01-25 00:03:30",570603,4.161,72.61,6.964,1.067,1.165,98.77759,-3.814,-2.668,75.14,0,109.5,13.56,-3.08,34.6
"2009-01-25 00:04:00",570604,3.613,67.42,5.852,1.184,-0.459,98.77759,-3.814,-2.831,75.04,0,109.5,13.56,-3.08,29.4
"2009-01-25 00:04:30",570605,2.179,59.7,2.693,0.266,-2.446,98.77702,-3.816,-2.769,75.01,0,109.5,13.56,-3.08,21.7
"2009-01-25 00:05:00",570606,3.638,61.74,8.1,1.162,0.075,98.76003,-3.859,-2.715,74.91,0,109.4,13.56,-3.12,23.7
"2009-01-25 00:05:30",570607,3.201,56.36,6.336,1.177,0.079,98.74364,-3.901,-2.735,74.96,0,109.4,13.57,-3.16,18.4
"2009-01-25 00:06:00",570608,4.051,54.82,4.513,0.879,1.295,98.74643,-3.894,-2.691,75.11,0,109.5,13.57,-3.16,16.8
"2009-01-25 00:06:30",570609,3.606,46.81,6.723,1.109,0.431,98.75173,-3.88,-2.764,75.44,0,109.5,13.57,-3.14,8.8
"2009-01-25 00:07:00",570610,3.527,38.27,5.952,1.16,0.464,98.7698,-3.834,-2.788,75.96,0,109.4,13.57,-3.10,0.3
"2009-01-25 00:07:30",570611,3.496,29.6,9.21,1.156,-0.58,98.80991,-3.732,-2.756,76.31,0,109.4,13.58,-2.99,351.6
"2009-01-25 00:08:00",570612,3.822,23.93,6.944,1.152,0.807,98.84975,-3.631,-2.63,76.44,0,109.4,13.58,-2.89,345.9
"2009-01-25 00:08:30",570613,4.227,17.09,6.385,1.086,1.404,98.88597,-3.538,-2.556,76.27,0,109.4,13.58,-2.80,339.1
"2009-01-25 00:09:00",570614,5.521,3.614,5.787,0.664,2.815,98.9199,-3.452,-2.434,76.09,0,109.4,13.58,-2.71,325.6
"2009-01-25 00:09:30",570615,5.473,350.4,6.356,1.195,1.39,98.97788,-3.304,-2.434,75.91,0,109.4,13.58,-2.56,312.4
"2009-01-25 00:10:00",570616,6.26,350,4.624,0.886,2.503,99.05627,-3.105,-2.257,76.15,0,109.4,13.58,-2.36,312.0
"2009-01-25 00:10:30",570617,5.402,349,5.741,1.168,1.334,99.15421,-2.855,-2.193,76.67,0,109.4,13.58,-2.11,311.0
"2009-01-25 00:11:00",570618,6.884,353.8,5.949,1.132,2.511,99.25158,-2.607,-1.902,76.1,0,109.4,13.58,-1.86,315.8
"2009-01-25 00:11:30",570619,7.162,353.7,5.876,1.193,2.684,99.31867,-2.436,-1.726,74.84,0,109.4,13.58,-1.69,315.7
"2009-01-25 00:12:00",570620,7.469,354,4.613,0.913,3.863,99.37642,-2.289,-1.575,74.32,0,109.4,13.58,-1.54,316.0
"2009-01-25 00:12:30",570621,7.143,349.1,4.764,0.863,3.29,99.42708,-2.16,-1.425,73.85,0,109.4,13.58,-1.42,311.1
"2009-01-25 00:13:00",570622,6.885,346.4,4.367,0.756,3.632,99.48029,-2.024,-1.254,73.23,0,109.4,13.58,-1.28,308.4
"2009-01-25 00:13:30",570623,7.061,346.9,3.508,0.532,2.949,99.52248,-1.917,-1.124,71.58,0,109.4,13.58,-1.17,308.9
"2009-01-25 00:14:00",570624,6.156,350,4.129,0.835,2.4,99.51567,-1.934,-1.054,69.66,0,109.5,13.58,-1.19,312.0
"2009-01-25 00:14:30",570625,6.087,347.3,5.523,0.389,2.355,99.48483,-2.013,-1.057,69.04,0,109.4,13.59,-1.27,309.3
"2009-01-25 00:15:00",570626,5.393,339.3,5.874,1.069,0.46,99.45764,-2.082,-1.21,68.83,0,109.4,13.59,-1.34,301.3
"2009-01-25 00:15:30",570627,4.33,338.2,5.086,0.735,-1.284,99.45764,-2.082,-1.258,68.67,0,109.4,13.59,-1.34,300.2
"2009-01-25 00:16:00",570628,4.857,344,5.333,1.115,-0.295,99.44234,-2.121,-1.269,68.53,0,109.4,13.59,-1.38,306.0
"2009-01-25 00:16:30",570629,6.031,350.3,3.712,0.804,3.044,99.42677,-2.161,-1.066,68.63,0,109.4,13.59,-1.42,312.3
"2009-01-25 00:17:00",570630,5.895,351.3,3.854,0.672,3.419,99.42421,-2.167,-1.031,68.64,0,109.4,13.59,-1.42,313.3
"2009-01-25 00:17:30",570631,5.586,352.8,4.325,0.574,3.043,99.40749,-2.21,-1.034,68.53,0,109.4,13.59,-1.47,314.8
"2009-01-25 00:18:00",570632,5.373,352.2,2.692,0.823,2.589,99.39475,-2.242,-1.072,68.42,0,109.4,13.59,-1.50,314.2
"2009-01-25 00:18:30",570633,4.754,348.2,5.988,1.113,0.62,99.37012,-2.305,-1.244,68.3,0,109.4,13.59,-1.56,310.2
"2009-01-25 00:19:00",570634,4.322,346.4,6.973,1.194,-0.33,99.35483,-2.344,-1.313,68.25,0,109.4,13.59,-1.60,308.4
"2009-01-25 00:19:30",570635,4.466,337.3,5.09,1.245,-0.098,99.33359,-2.398,-1.331,68.32,0,109.4,13.59,-1.65,299.3
"2009-01-25 00:20:00",570636,5.138,336.6,6.628,1.019,1.907,99.33611,-2.392,-1.25,68.7,0,109.4,13.59,-1.65,298.6
"2009-01-25 00:20:30",570637,5.399,337.8,3.959,0.667,3.28,99.32846,-2.411,-1.199,68.82,0,109.4,13.59,-1.67,299.8
"2009-01-25 00:21:00",570638,4.939,344.2,4.151,0.752,3.185,99.3358,-2.392,-1.202,68.85,0,109.4,13.59,-1.65,306.2
"2009-01-25 00:21:30",570639,4.359,352.1,5.807,1.161,1.845,99.34371,-2.372,-1.318,68.83,0,109.4,13.59,-1.63,314.1
"2009-01-25 00:22:00",570640,3.503,355.9,7.471,0.799,1.108,99.37682,-2.288,-1.305,69.35,0,109.4,13.59,-1.54,317.9
"2009-01-25 00:22:30",570641,2.087,356.6,5.361,0.828,-0.247,99.4391,-2.129,-1.249,70.57,0,109.4,13.59,-1.38,318.6
"2009-01-25 00:23:00",570642,2.862,351.7,6.487,1.091,-0.775,99.48412,-2.014,-1.239,68.79,0,109.4,13.6,-1.27,313.7
"2009-01-25 00:23:30",570643,2.546,6.029,19.06,1.033,2.391,99.47534,-2.037,-0.951,67.64,0,109.4,13.6,-1.29,328.0
"2009-01-25 00:24:00",570644,1.932,18.39,25.94,0.95,1.718,99.4272,-2.16,-1.039,67.24,0,109.4,13.6,-1.42,340.4
"2009-01-25 00:24:30",570645,0.512,23.29,3.768,0.168,-2.688,99.36744,-2.312,-1.26,67.09,0,109.4,13.64,-1.57,345.3
"2009-01-25 00:25:00",570646,2.17,20.93,8.33,1.275,-1.369,99.306,-2.468,-1.319,67.48,0,109.4,13.6,-1.73,342.9
"2009-01-25 00:25:30",570647,2.506,29.59,6.286,1.334,-1.056,99.27117,-2.557,-1.363,68.16,0,109.4,13.61,-1.81,351.6
"2009-01-25 00:26:00",570648,3.122,35.01,6.861,1.128,-0.917,99.23521,-2.649,-1.462,68.34,0,109.4,13.61,-1.91,357.0
"2009-01-25 00:26:30",570649,3.779,41.9,6.71,1.075,1.184,99.19415,-2.753,-1.405,68.63,0,109.4,13.61,-2.01,3.9
"2009-01-25 00:27:00",570650,4.718,52.22,4.711,0.536,2.336,99.1545,-2.854,-1.473,69.06,0,109.4,13.61,-2.11,14.2
"2009-01-25 00:27:30",570651,4.081,53.08,5.68,1.194,0.297,99.12022,-2.942,-1.598,69.4,0,109.4,13.61,-2.20,15.1
"2009-01-25 00:28:00",570652,3.329,49.82,5.006,1.18,-1.314,99.09417,-3.008,-1.856,69.53,0,109.4,13.61,-2.27,11.8
"2009-01-25 00:28:30",570653,3.063,58.66,5.494,1.228,-0.55,99.0786,-3.048,-1.903,69.74,0,109.4,13.61,-2.31,20.7
"2009-01-25 00:29:00",570654,2.659,64.24,6.128,1.129,-0.154,99.05482,-3.108,-1.823,70.15,0,109.4,13.61,-2.37,26.2
"2009-01-25 00:29:30",570655,3.903,65.84,5.94,1.065,1.907,99.04858,-3.124,-1.832,70.6,0,109.4,13.61,-2.38,27.8
"2009-01-25 00:30:00",570656,4.128,61.54,5.881,1.061,1.463,99.04745,-3.127,-1.863,70.57,0,109.4,13.61,-2.39,23.5
"2009-01-25 00:30:30",570657,4.863,62.17,4.491,0.742,1.475,99.02254,-3.191,-1.973,70.53,0,109.4,13.62,-2.45,24.2
"2009-01-25 00:31:00",570658,4.547,59.63,6.231,1.235,0.447,99.01461,-3.211,-2.024,70.65,0,109.4,13.62,-2.47,21.6
"2009-01-25 00:31:30",570659,3.944,61.09,8.48,1.119,0.18,99.01461,-3.211,-2.047,71.2,0,109.4,13.62,-2.47,23.1
"2009-01-25 00:32:00",570660,4.354,70.91,6.232,0.996,1.771,99.03273,-3.165,-2.024,71.84,0,109.4,13.62,-2.42,32.9
"2009-01-25 00:32:30",570661,3.889,65.51,5.497,1.095,2.171,99.05794,-3.1,-1.942,72.08,0,109.4,13.62,-2.36,27.5
"2009-01-25 00:33:00",570662,3.999,65.33,5.896,1.032,1.53,99.08256,-3.038,-1.921,71.93,0,109.4,13.62,-2.30,27.3
"2009-01-25 00:33:30",570663,2.992,54.99,4.029,1.055,-1.028,99.09077,-3.017,-2.018,71.41,0,109.4,13.62,-2.28,17.0
"2009-01-25 00:34:00",570664,3.221,53.52,4.608,0.996,-1.063,99.08908,-3.021,-1.995,70.92,0,109.4,13.62,-2.28,15.5
"2009-01-25 00:34:30",570665,4.282,57.76,5.944,1.173,1.026,99.08312,-3.036,-1.854,70.93,0,109.4,13.62,-2.29,19.8
"2009-01-25 00:35:00",570666,5.286,63.32,4.445,0.855,2.649,99.08425,-3.033,-1.852,71.28,0,109.4,13.62,-2.29,25.3
"2009-01-25 00:35:30",570667,5.22,62.18,5.558,1.091,2.012,99.09273,-3.012,-1.862,71.39,0,109.4,13.62,-2.27,24.2
"2009-01-25 00:36:00",570668,5.416,61.22,5.591,0.962,1.987,99.11309,-2.96,-1.834,71.38,0,109.4,13.62,-2.22,23.2
"2009-01-25 00:36:30",570669,5.527,59.37,5.639,1.01,1.698,99.12636,-2.926,-1.852,71.11,0,109.4,13.62,-2.18,21.4
"2009-01-25 00:37:00",570670,5.286,60.02,5.557,1.177,1.109,99.10284,-2.986,-1.892,70,0,109.4,13.62,-2.24,22.0
"2009-01-25 00:37:30",570671,5.243,66.12,5.456,1.027,1.651,99.08498,-3.031,-1.889,69.81,0,109.4,13.62,-2.29,28.1
"2009-01-25 00:38:00",570672,4.935,68.59,5.477,1.069,1.658,99.05099,-3.118,-1.91,70.09,0,109.4,13.62,-2.38,30.6
"2009-01-25 00:38:30",570673,4.531,72.12,6.766,1.18,0.428,99.02096,-3.195,-2,70.34,0,109.4,13.62,-2.45,34.1
"2009-01-25 00:39:00",570674,4.505,77.62,6.364,1.23,0.569,98.98499,-3.286,-2.066,70.57,0,109.4,13.62,-2.55,39.6
"2009-01-25 00:39:30",570675,4.5,80.3,5.78,1.068,0.816,98.9643,-3.339,-2.116,70.94,0,109.4,13.62,-2.60,42.3
"2009-01-25 00:40:00",570676,4.273,80.4,4.875,1.069,1.591,98.95635,-3.359,-2.207,70.96,0,109.4,13.62,-2.62,42.4
"2009-01-25 00:40:30",570677,3.315,80.6,6.82,1.206,1.483,98.97842,-3.303,-2.174,72.17,0,109.4,13.63,-2.56,42.6
"2009-01-25 00:41:00",570678,3.679,82.1,5.557,1.029,1.57,99.02285,-3.19,-2.194,72.73,0,109.4,13.63,-2.45,44.1
"2009-01-25 00:41:30",570679,2.816,76.32,5.152,0.962,-1.124,99.06731,-3.076,-2.158,72.16,0,109.4,13.63,-2.34,38.3
"2009-01-25 00:42:00",570680,4.206,84.1,6.594,1.135,0.017,99.06191,-3.09,-2.081,70.37,0,109.4,13.63,-2.35,46.1
"2009-01-25 00:42:30",570681,4.546,90.8,6.024,1.125,0.472,99.03443,-3.16,-2.091,70.24,0,109.4,13.63,-2.42,52.8
"2009-01-25 00:43:00",570682,5.218,91.1,3.888,0.794,2.006,98.99676,-3.256,-2.039,70.61,0,109.4,13.63,-2.52,53.1
"2009-01-25 00:43:30",570683,5.729,89.2,4.004,0.64,1.838,98.96191,-3.345,-2.12,70.82,0,109.4,13.63,-2.60,51.2
"2009-01-25 00:44:00",570684,5.397,80.8,6.518,1.199,0.069,98.91969,-3.453,-2.225,71,0,109.4,13.63,-2.71,42.8
"2009-01-25 00:44:30",570685,5.739,79.33,6.077,1.165,-0.035,98.86303,-3.597,-2.421,71.26,0,109.4,13.63,-2.86,41.3
"2009-01-25 00:45:00",570686,6.332,85.1,2.75,0.728,1.171,98.81657,-3.715,-2.375,71.94,0,109.4,13.63,-2.98,47.1
"2009-01-25 00:45:30",570687,6.236,84.3,4.255,0.839,1.029,98.7772,-3.815,-2.522,72.5,0,109.4,13.63,-3.08,46.3
"2009-01-25 00:46:00",570688,6.013,82.4,5.159,0.962,1.154,98.74292,-3.903,-2.572,73.03,0,109.4,13.63,-3.16,44.4
"2009-01-25 00:46:30",570689,6.325,83.4,4.476,0.898,1.554,98.71091,-3.984,-2.589,73.48,0,109.4,13.63,-3.25,45.4
"2009-01-25 00:47:00",570690,6.2,81.4,3.467,0.758,1.674,98.6908,-4.036,-2.659,73.89,0,109.4,13.63,-3.30,43.4
"2009-01-25 00:47:30",570691,5.663,75.68,5.953,1.029,0.791,98.6738,-4.079,-2.729,74.21,0,109.4,13.63,-3.34,37.7
"2009-01-25 00:48:00",570692,5.639,71.89,6.086,1.139,0.131,98.65256,-4.133,-2.942,74.32,0,109.3,13.63,-3.40,33.9
"2009-01-25 00:48:30",570693,5.461,70.31,5.557,0.999,0.11,98.64038,-4.164,-2.878,74.64,0,109.3,13.64,-3.43,32.3
"2009-01-25 00:49:00",570694,5.955,72.51,4.137,0.787,1.232,98.64038,-4.164,-2.89,74.82,0,109.3,13.64,-3.43,34.5
"2009-01-25 00:49:30",570695,5.477,68.36,4.701,0.968,1.388,98.64038,-4.164,-2.908,74.98,0,109.3,13.64,-3.43,30.4
"2009-01-25 00:50:00",570696,5.536,60.39,5.642,0.896,1.862,98.64038,-4.164,-2.903,75.08,0,109.3,13.63,-3.43,22.4
"2009-01-25 00:50:30",570697,5.688,55.52,4.686,0.898,2.241,98.66332,-4.105,-2.9,74.98,0,109.3,13.63,-3.37,17.5
"2009-01-25 00:51:00",570698,5.598,57.09,5.196,0.893,1.921,98.6908,-4.036,-2.874,74.7,0,109.3,13.63,-3.30,19.1
"2009-01-25 00:51:30",570699,5.224,64.36,4.734,1.08,0.936,98.70836,-3.991,-2.862,74.37,0,109.4,13.63,-3.25,26.4
"2009-01-25 00:52:00",570700,4.821,63.86,6.846,1.125,-0.537,98.70836,-3.991,-2.863,74.22,0,109.3,13.63,-3.25,25.9
"2009-01-25 00:52:30",570701,5.828,63.82,6.213,0.938,0.798,98.70836,-3.991,-2.882,74.17,0,109.3,13.63,-3.25,25.8
"2009-01-25 00:53:00",570702,6.146,67.75,6.223,1.093,1.229,98.70863,-3.99,-2.857,74.13,0,109.3,13.63,-3.25,29.8
"2009-01-25 00:53:30",570703,6.267,75.42,5.378,0.936,1.908,98.70552,-3.998,-2.812,74.25,0,109.3,13.64,-3.26,37.4
"2009-01-25 00:54:00",570704,5.947,77.87,3.98,0.839,2.102,98.69531,-4.024,-2.806,74.47,0,109.3,13.64,-3.29,39.9
"2009-01-25 00:54:30",570705,6.287,72.56,4.691,0.529,2.243,98.69388,-4.028,-2.809,74.49,0,109.3,13.64,-3.29,34.6
"2009-01-25 00:55:00",570706,5.798,70.49,5.112,0.953,1.077,98.69837,-4.016,-2.844,74.42,0,109.3,13.64,-3.28,32.5
"2009-01-25 00:55:30",570707,5.894,70.36,4.887,1.135,0.932,98.70824,-3.991,-2.783,74.55,0,109.3,13.64,-3.25,32.4
"2009-01-25 00:56:00",570708,5.292,63.96,5.156,1.216,-1.139,98.71754,-3.967,-2.987,74.45,0,109.3,13.64,-3.23,26.0
"2009-01-25 00:56:30",570709,6.013,68.34,5.113,1.029,1.093,98.72401,-3.951,-2.845,74.6,0,109.3,13.64,-3.21,30.3
"2009-01-25 00:57:00",570710,5.92,67.15,5.389,1.076,1.381,98.72514,-3.948,-2.827,74.55,0,109.3,13.65,-3.21,29.2
"2009-01-25 00:57:30",570711,6.228,67.34,4.196,0.575,2.395,98.72905,-3.938,-2.761,74.55,0,109.3,13.65,-3.20,29.3
"2009-01-25 00:58:00",570712,6.285,65.73,3.053,0.812,2.291,98.73842,-3.914,-2.733,74.44,0,109.3,13.65,-3.18,27.7
"2009-01-25 00:58:30",570713,6.618,65.08,3.166,0.73,2.165,98.75966,-3.86,-2.718,74.4,0,109.3,13.65,-3.12,27.1
"2009-01-25 00:59:00",570714,6.367,63.43,5.064,0.88,1.458,98.76333,-3.851,-2.734,74.32,0,109.3,13.65,-3.11,25.4
"2009-01-25 00:59:30",570715,6.259,60.8,5.391,1.093,0.786,98.76899,-3.836,-2.742,74.15,0,109.3,13.65,-3.10,22.8
"2009-01-25 01:00:00",570716,5.352,54.11,6.47,1.043,-0.629,98.79643,-3.766,-2.803,73.9,0,109.3,13.65,-3.03,16.1
"2009-01-25 01:00:30",570717,6.796,57.91,4.969,1.015,1.813,98.80041,-3.756,-2.674,73.81,0,109.3,13.65,-3.02,19.9
"2009-01-25 01:01:00",570718,7.031,58.65,4.838,0.825,2.608,98.80518,-3.744,-2.635,73.51,0,109.3,13.65,-3.01,20.7
"2009-01-25 01:01:30",570719,7.347,57.46,2.384,0.817,2.617,98.81707,-3.714,-2.571,73.35,0,109.3,13.65,-2.97,19.5
"2009-01-25 01:02:00",570720,7.638,54.98,3.4,0.739,2.729,98.83321,-3.673,-2.557,73.22,0,109.3,13.65,-2.93,17.0
"2009-01-25 01:02:30",570721,7.766,58.31,2.673,0.737,2.56,98.83916,-3.658,-2.536,73.02,0,109.3,13.66,-2.92,20.3
"2009-01-25 01:03:00",570722,7.978,56.9,2.593,0.731,2.53,98.8284,-3.685,-2.534,72.9,0,109.3,13.65,-2.95,18.9
"2009-01-25 01:03:30",570723,8.04,55.23,4.333,0.633,2.557,98.82328,-3.698,-2.507,72.87,0,109.3,13.66,-2.96,17.2
"2009-01-25 01:04:00",570724,7.707,59.3,3.785,0.642,2.186,98.81141,-3.728,-2.53,72.86,0,109.3,13.66,-2.99,21.3
"2009-01-25 01:04:30",570725,7.632,57.42,2.43,0.742,2.439,98.80656,-3.741,-2.567,72.95,0,109.3,13.65,-3.00,19.4
"2009-01-25 01:05:00",570726,7.507,57.93,2.779,0.712,2.328,98.8046,-3.746,-2.576,73.07,0,109.3,13.66,-3.01,19.9
"2009-01-25 01:05:30",570727,7.485,54.47,3.644,0.722,2.478,98.79383,-3.773,-2.558,73.22,0,109.3,13.65,-3.03,16.5
"2009-01-25 01:06:00",570728,7.168,59.43,3.627,0.829,2.05,98.78983,-3.783,-2.593,73.23,0,109.3,13.66,-3.04,21.4
"2009-01-25 01:06:30",570729,7.257,65.62,3.323,0.637,2.104,98.77538,-3.82,-2.611,73.2,0,109.3,13.65,-3.08,27.6
"2009-01-25 01:07:00",570730,7.324,68.44,4.124,0.49,1.847,98.75526,-3.871,-2.639,73.22,0,109.3,13.65,-3.13,30.4
"2009-01-25 01:07:30",570731,7.167,65.41,3.695,0.726,1.856,98.74108,-3.907,-2.656,73.41,0,109.3,13.65,-3.17,27.4
"2009-01-25 01:08:00",570732,7.115,68.46,3.522,0.71,1.66,98.72266,-3.954,-2.684,73.6,0,109.3,13.65,-3.22,30.5
"2009-01-25 01:08:30",570733,7.072,72.11,2.699,0.726,1.525,98.70792,-3.992,-2.741,73.72,0,109.3,13.65,-3.25,34.1
"2009-01-25 01:09:00",570734,6.974,70.72,4.102,0.624,1.582,98.69006,-4.037,-2.775,73.96,0,109.3,13.65,-3.30,32.7
"2009-01-25 01:09:30",570735,6.924,73.99,3.934,0.724,1.325,98.67505,-4.076,-2.796,74.08,0,109.3,13.65,-3.34,36.0
"2009-01-25 01:10:00",570736,6.937,74.51,3.521,0.724,1.25,98.66825,-4.093,-2.837,74.15,0,109.3,13.65,-3.36,36.5
"2009-01-25 01:10:30",570737,6.842,73.76,2.289,0.798,1.249,98.64644,-4.148,-2.864,74.32,0,109.3,13.65,-3.41,35.8
"2009-01-25 01:11:00",570738,6.774,68.29,4.315,0.718,1.031,98.63991,-4.165,-2.886,74.5,0,109.3,13.65,-3.43,30.3
"2009-01-25 01:11:30",570739,7.056,69.6,4.297,0.362,1.506,98.63963,-4.166,-2.919,74.61,0,109.3,13.65,-3.43,31.6
"2009-01-25 01:12:00",570740,7.062,69.83,5.232,0.77,0.963,98.62376,-4.206,-2.923,74.7,0,109.3,13.66,-3.47,31.8
"2009-01-25 01:12:30",570741,7.268,70.44,3.493,0.722,1.01,98.60818,-4.246,-2.953,74.81,0,109.3,13.66,-3.51,32.4
"2009-01-25 01:13:00",570742,6.432,64.76,5.788,1.072,-0.013,98.60592,-4.252,-3.076,74.85,0,109.4,13.66,-3.51,26.8
"2009-01-25 01:13:30",570743,6.321,63.74,5.816,1.093,-0.398,98.59713,-4.274,-3.12,74.99,0,109.3,13.66,-3.54,25.7
"2009-01-25 01:14:00",570744,6.993,64.64,4.183,0.843,1.133,98.58495,-4.305,-3.095,75.19,0,109.3,13.66,-3.57,26.6
"2009-01-25 01:14:30",570745,6.875,64.04,3.763,0.656,2.009,98.57446,-4.332,-3.035,75.41,0,109.3,13.66,-3.60,26.0
"2009-01-25 01:15:00",570746,6.999,62.4,2.794,0.61,1.846,98.57191,-4.338,-3.066,75.47,0,109.3,13.66,-3.60,24.4
"2009-01-25 01:15:30",570747,7.008,60.25,3.643,0.707,1.925,98.57191,-4.338,-3.074,75.53,0,109.3,13.66,-3.60,22.2
"2009-01-25 01:16:00",570748,6.614,58.61,3.201,0.787,1.437,98.57191,-4.338,-3.075,75.62,0,109.3,13.66,-3.60,20.6
"2009-01-25 01:16:30",570749,6.571,57.72,3.487,0.602,1.465,98.57191,-4.338,-3.094,75.75,0,109.3,13.66,-3.60,19.7
"2009-01-25 01:17:00",570750,6.766,56.72,3.683,0.662,1.062,98.56114,-4.366,-3.113,75.86,0,109.3,13.66,-3.63,18.7
"2009-01-25 01:17:30",570751,6.659,53.81,2.938,0.667,1.189,98.55492,-4.382,-3.127,76.1,0,109.3,13.67,-3.64,15.8
"2009-01-25 01:18:00",570752,6.723,51.83,3.574,0.64,1.275,98.5603,-4.368,-3.138,76.23,0,109.3,13.67,-3.63,13.8
"2009-01-25 01:18:30",570753,6.621,52.97,3.954,0.757,1.14,98.56821,-4.348,-3.125,76.23,0,109.3,13.67,-3.61,15.0
"2009-01-25 01:19:00",570754,6.475,52.33,2.447,0.72,0.909,98.57133,-4.34,-3.127,76.21,0,109.4,13.67,-3.60,14.3
"2009-01-25 01:19:30",570755,6.385,50.74,3.756,0.734,1.042,98.57301,-4.335,-3.133,76.16,0,109.3,13.67,-3.60,12.7
"2009-01-25 01:20:00",570756,6.277,50.22,3.636,0.749,0.981,98.57098,-4.341,-3.139,76.11,0,109.3,13.66,-3.60,12.2
"2009-01-25 01:20:30",570757,6.32,50.4,3.15,0.715,1.001,98.57207,-4.338,-3.133,76.1,0,109.3,13.67,-3.60,12.4
"2009-01-25 01:21:00",570758,6.25,50.52,3.42,0.635,0.914,98.57773,-4.323,-3.138,76.19,0,109.4,13.67,-3.59,12.5
"2009-01-25 01:21:30",570759,6.071,53.32,3.221,0.709,0.937,98.58559,-4.303,-3.122,76.17,0,109.3,13.67,-3.57,15.3
"2009-01-25 01:22:00",570760,6.304,52.32,3.299,0.739,0.756,98.58782,-4.298,-3.14,76.07,0,109.3,13.67,-3.56,14.3
"2009-01-25 01:22:30",570761,6.387,51.94,3.103,0.73,0.994,98.58779,-4.298,-3.146,76.04,0,109.3,13.66,-3.56,13.9
"2009-01-25 01:23:00",570762,6.223,48.28,3.356,0.707,0.786,98.59286,-4.285,-3.124,76.14,0,109.2,13.66,-3.55,10.3
"2009-01-25 01:23:30",570763,6.389,48.37,3.171,0.854,0.744,98.59342,-4.283,-3.118,76.12,0,109.3,13.66,-3.55,10.4
"2009-01-25 01:24:00",570764,6.01,46.45,3.251,0.831,0.753,98.59594,-4.277,-3.132,76.06,0,109.3,13.66,-3.54,8.5
"2009-01-25 01:24:30",570765,6.081,44.49,3.146,0.761,1.042,98.59454,-4.281,-3.125,76.13,0,109.3,13.66,-3.54,6.5
"2009-01-25 01:25:00",570766,6.338,44.8,3.404,0.62,0.97,98.5965,-4.276,-3.121,76.32,0,109.3,13.66,-3.54,6.8
"2009-01-25 01:25:30",570767,6.102,45.75,3.76,0.727,0.855,98.60442,-4.255,-3.087,76.3,0,109.3,13.66,-3.52,7.8
"2009-01-25 01:26:00",570768,5.809,46.56,1.926,0.829,0.643,98.61123,-4.238,-3.085,76.17,0,109.3,13.66,-3.50,8.6
"2009-01-25 01:26:30",570769,5.45,45.24,3.245,0.811,0.759,98.61462,-4.23,-3.099,76.06,0,109.3,13.66,-3.49,7.2
"2009-01-25 01:27:00",570770,4.508,41.64,5.184,1.045,-0.531,98.61745,-4.222,-3.141,75.83,0,109.3,13.66,-3.49,3.6
"2009-01-25 01:27:30",570771,3.227,38.13,2.885,0.173,-3.777,98.6143,-4.23,-3.33,75.45,0,109.3,13.7,-3.49,0.1
"2009-01-25 01:28:00",570772,3.592,43.19,5.679,0.913,-2.533,98.60127,-4.264,-3.208,75.53,0,109.3,13.68,-3.53,5.2
"2009-01-25 01:28:30",570773,4.996,53.26,6.192,1.035,0.35,98.59985,-4.267,-3.185,75.61,0,109.3,13.68,-3.53,15.3
"2009-01-25 01:29:00",570774,5.594,56.33,4.054,0.649,1.795,98.59817,-4.271,-3.068,75.74,0,109.3,13.68,-3.53,18.3
"2009-01-25 01:29:30",570775,5.692,58.48,3.666,0.725,2.037,98.59102,-4.29,-3.11,75.78,0,109.3,13.68,-3.55,20.5
"2009-01-25 01:30:00",570776,5.857,58.2,3.689,0.653,2.026,98.58535,-4.304,-3.119,75.8,0,109.3,13.68,-3.57,20.2
"2009-01-25 01:30:30",570777,5.882,60.01,3.625,0.474,1.665,98.58083,-4.316,-3.133,75.84,0,109.2,13.68,-3.58,22.0
"2009-01-25 01:31:00",570778,6.022,59.43,2.617,0.656,1.077,98.57939,-4.319,-3.116,75.9,0,109.3,13.68,-3.58,21.4
"2009-01-25 01:31:30",570779,6.164,55.03,4.405,0.633,1.396,98.57573,-4.329,-3.115,75.91,0,109.3,13.68,-3.59,17.0
"2009-01-25 01:32:00",570780,6.144,52.95,3.136,0.742,1.137,98.57682,-4.326,-3.141,75.93,0,109.3,13.68,-3.59,15.0
"2009-01-25 01:32:30",570781,6.101,51.2,3.051,0.722,1.114,98.57739,-4.324,-3.138,75.91,0,109.3,13.68,-3.59,13.2
"2009-01-25 01:33:00",570782,6.475,49.51,3.846,0.499,1.036,98.58419,-4.307,-3.139,75.94,0,109.2,13.68,-3.57,11.5
"2009-01-25 01:33:30",570783,5.786,45.68,2.716,0.813,1.029,98.59837,-4.271,-3.104,75.94,0,109.3,13.68,-3.53,7.7
"2009-01-25 01:34:00",570784,5.768,43.35,3.618,0.898,1.037,98.606,-4.251,-3.108,75.87,0,109.3,13.68,-3.51,5.3
"2009-01-25 01:34:30",570785,5.805,41.88,3.523,0.696,1.157,98.63066,-4.189,-3.051,75.83,0,109.3,13.68,-3.45,3.9
"2009-01-25 01:35:00",570786,4.714,37.43,5.879,1.159,-1.236,98.63918,-4.167,-3.221,75.37,0,109.3,13.68,-3.43,359.4
"2009-01-25 01:35:30",570787,3.963,31.01,3.276,0.995,-2.951,98.65022,-4.139,-3.297,75.07,0,109.3,13.68,-3.40,353.0
"2009-01-25 01:36:00",570788,4.979,36.6,5,1.142,-0.587,98.6729,-4.081,-3.05,75.12,0,109.3,13.69,-3.34,358.6
"2009-01-25 01:36:30",570789,6.256,39.12,4.987,0.75,1.81,98.67432,-4.077,-2.953,75.04,0,109.3,13.69,-3.34,1.1
"2009-01-25 01:37:00",570790,5.996,42.46,4.483,0.817,2.054,98.67517,-4.075,-2.928,74.91,0,109.3,13.69,-3.34,4.5
"2009-01-25 01:37:30",570791,6.17,37.8,4.495,0.773,2.262,98.67489,-4.076,-2.901,74.83,0,109.3,13.69,-3.34,359.8
"2009-01-25 01:38:00",570792,5.755,38.91,3.737,0.773,2.12,98.68651,-4.046,-2.898,74.77,0,109.3,13.69,-3.31,0.9
"2009-01-25 01:38:30",570793,5.661,38.14,3.725,0.719,1.775,98.68934,-4.039,-2.899,74.71,0,109.2,13.69,-3.30,0.1
"2009-01-25 01:39:00",570794,5.414,40.65,3.436,0.813,1.364,98.68877,-4.041,-2.892,74.67,0,109.3,13.68,-3.30,2.7
"2009-01-25 01:39:30",570795,4.371,32.71,6.473,1.176,-1.282,98.68906,-4.04,-3.081,74.47,0,109.3,13.68,-3.30,354.7
"2009-01-25 01:40:00",570796,4.427,36.01,6.557,1.23,-0.707,98.69529,-4.024,-3.007,74.53,0,109.3,13.68,-3.29,358.0
"2009-01-25 01:40:30",570797,4.726,36.08,6.293,1.208,-1.007,98.69019,-4.037,-3.035,74.44,0,109.2,13.68,-3.30,358.1
"2009-01-25 01:41:00",570798,5.767,41.35,2.568,0.796,1.762,98.68282,-4.056,-2.887,74.62,0,109.2,13.69,-3.32,3.3
"2009-01-25 01:41:30",570799,5.59,40.35,3.74,0.872,2.017,98.6797,-4.064,-2.883,74.64,0,109.2,13.69,-3.33,2.3
"2009-01-25 01:42:00",570800,6.069,39.88,4.089,0.827,2.103,98.68083,-4.061,-2.876,74.61,0,109.2,13.69,-3.32,1.9
"2009-01-25 01:42:30",570801,6.869,40.61,2.955,0.862,1.797,98.69161,-4.033,-2.849,74.58,0,109.2,13.69,-3.30,2.6
"2009-01-25 01:43:00",570802,6.348,40.54,4.513,0.839,1.251,98.70719,-3.994,-2.899,74.4,0,109.2,13.69,-3.26,2.5
"2009-01-25 01:43:30",570803,6.117,41.06,5.857,1.254,0.616,98.70748,-3.993,-2.824,74.36,0,109.2,13.69,-3.26,3.1
"2009-01-25 01:44:00",570804,6.956,45.22,3.82,0.677,1.49,98.70748,-3.993,-2.83,74.24,0,109.2,13.69,-3.26,7.2
"2009-01-25 01:44:30",570805,6.558,46.23,4.45,0.969,1.53,98.70776,-3.992,-2.8,74.2,0,109.2,13.69,-3.25,8.2
"2009-01-25 01:45:00",570806,5.494,42.66,5.535,1.121,0.933,98.70748,-3.993,-2.877,74.1,0,109.2,13.69,-3.26,4.7
"2009-01-25 01:45:30",570807,5.03,40.25,6.29,1.223,0.776,98.70748,-3.993,-2.826,74.18,0,109.2,13.69,-3.26,2.2
"2009-01-25 01:46:00",570808,4.881,39.56,5.947,1.15,-0.011,98.70748,-3.993,-2.856,74.13,0,109.2,13.69,-3.26,1.6
"2009-01-25 01:46:30",570809,5.573,43.43,4.46,1.16,0.694,98.70748,-3.993,-2.865,74.14,0,109.2,13.69,-3.26,5.4